Location: Newark
(14.9306°N, 3.4333°E)
Time: 02:09:04
(UTC+00:00)

First-Move - Pass Details

Date: 09 December 2019
Orbit: 576 x 669 km, 97.6° (Epoch: 18 January)

Event Time Altitude Azimuth Distance (km) Brightness Sun altitude
Rises 18:27:00 0° 203° (SSW) 2,999 ? -16.7°
Reaches altitude 10° 18:30:02 10° 224° (SW) 2,089 ? -17.3°
Maximum altitude 18:32:47 16° 262° (W) 1,730 ? -18.0°
Drops below altitude 10° 18:35:32 10° 299° (WNW) 2,085 ? -18.6°
Sets 18:38:34 0° 321° (NW) 2,990 ? -19.3°
